Regional Weather Roundup
Issued by NWS

Home | Current Version | Previous Version | Graphics & Text | Print | Product List | Glossary On
Versions: 1 2 3 4 5 6 7 8 9 10 11 12 13 14 15 16 17 18 19 20 21 22 23 24 25 26 27 28 29 30 31 32 33 34 35 36 37 38 39 40 41 42 43 44 45 46 47 48 49 50
595
ASUS43 KMKX 291611
RWRWI

WISCONSIN REGIONAL WEATHER ROUNDUP
NATIONAL WEATHER SERVICE MILWAUKEE/SULLIVAN WI
1100 AM CDT FRI APR 29 2016

NOTE: "FAIR" INDICATES FEW OR NO CLOUDS BELOW 12,000 FEET WITH NO
SIGNIFICANT WEATHER AND/OR OBSTRUCTIONS TO VISIBILITY.

WIZ001-002-006>008-014>016-023>028-291700-
NORTHWEST WISCONSIN

CITY           SKY/WX    TMP DP  RH WIND       PRES   REMARKS
SUPERIOR ARPT  SUNNY     46  29  51 NE9       30.21S
ASHLAND        SUNNY     49  34  56 NE9       30.20F
HAYWARD        SUNNY     49  26  41 NE7       30.16F
SIREN          SUNNY     49  28  43 N13       30.18F
CUMBERLAND     SUNNY     46  30  53 N9        30.15F
RICE LAKE      SUNNY     48  32  53 N6        30.16F
CHETEK         SUNNY     48  34  57 CALM      30.15F
LADYSMITH      SUNNY     49  34  55 NW5       30.16F
EAU CLAIRE     MOSUNNY   49  38  65 VRB6      30.14F
MENOMONIE      MOSUNNY   47  47 100 CALM      30.15F
NEW RICHMOND   SUNNY     47  35  64 NW5       30.16F
OSCEOLA        SUNNY     47  34  60 N6        30.19F
$$

WIZ003>005-009-010-017-018-291700-
NORTH CENTRAL WISCONSIN

CITY           SKY/WX    TMP DP  RH WIND       PRES   REMARKS
MANITOWISH WTR MOSUNNY   49  32  52 CALM      30.13F
ARBOR VITAE    CLOUDY    49  35  56 E7        30.13F
WOODRUFF       CLOUDY    49  35  56 E7        30.13F
RHINELANDER    CLOUDY    49  33  54 VRB5      30.14F
EAGLE RIVER    PTSUNNY   47  29  50 E5        30.14S
LAND O LAKES   CLOUDY    47  32  55 NW6       30.15S
PHILLIPS       MOSUNNY   48  34  57 CALM      30.13F
TOMAHAWK       CLOUDY    46  33  62 NE5       30.15S
MEDFORD        CLOUDY    43  37  80 N6        30.14S
MERRILL        CLOUDY    46  34  61 NE5       30.15S
$$

WIZ029-030-035-036-043>047-291700-
CENTRAL WISCONSIN

CITY           SKY/WX    TMP DP  RH WIND       PRES   REMARKS
WAUSAU         CLOUDY    49  35  58 NE7       30.12F
MOSINEE        CLOUDY    45  36  70 NE6       30.15S
MARSHFIELD     MOSUNNY   49  37  63 VRB7      30.10F
STEVENS POINT  CLOUDY    46  34  62 N8        30.12F
WAUPACA        PTSUNNY   51  33  50 N10       30.13F
WAUTOMA        MOSUNNY   49  34  56 NE10G21   30.11
WISC RAPIDS    CLOUDY    49  36  61 N12       30.12F
CAMP DOUGLAS   PTSUNNY   48  46  93 N9        30.10F
$$

WIZ011>013-019>022-031-037>040-048>050-291700-
NORTHEAST WISCONSIN

CITY           SKY/WX    TMP DP  RH WIND       PRES   REMARKS
ANTIGO         PTSUNNY   48  34  60 CALM      30.14R
SHAWANO        CLOUDY    50  34  53 E6        30.15R
OCONTO         CLOUDY    46  32  57 E7        30.14S
STURGEON BAY   CLOUDY    48  30  49 E9        30.16R
GREEN BAY      MOSUNNY   49  36  61 NE12      30.14R
MANITOWOC      SUNNY     47  32  56 MISG      30.13R
APPLETON       PTSUNNY   46  34  61 NE9       30.10S
CLINTONVILLE   CLOUDY    50  32  50 NE9       30.13S
OSHKOSH        PTSUNNY   48  34  58 NE15      30.10F
$$

WIZ032>034-041-042-053>061-291700-
SOUTHWEST WISCONSIN

CITY           SKY/WX    TMP DP  RH WIND       PRES   REMARKS
LA CROSSE      CLOUDY    48  36  63 N10       30.13S
SPARTA         CLOUDY    48  38  67 NE13      30.12F
VIROQUA        CLOUDY    45  38  76 NE14      30.11R
BOSCOBEL       PTSUNNY   49  36  61 N8        30.12R
PRAIRIE DU CHI CLOUDY    47  35  64 NE5       30.12R
PLATTEVILLE    CLOUDY    47  39  74 NE13      30.10S
$$

WIZ056-057-062-063-064-067-068-291700-
SOUTH CENTRAL WISCONSIN

CITY           SKY/WX    TMP DP  RH WIND       PRES   REMARKS
REEDSBURG      CLOUDY    46  38  74 NE7       30.11S
BARABOO/DELLS  CLOUDY    46  38  71 E7        30.11S
LONE ROCK      PTSUNNY   47  37  68 N12       30.11F
MINERAL POINT  PTSUNNY   46  37  71 NE13      30.09S
MADISON        CLOUDY    46  38  73 NE12      30.12R
MIDDLETON      CLOUDY    46  39  77 NE10      30.12R
WATERTOWN      CLOUDY    43  37  82 NE7       30.13R
MONROE         CLOUDY    45  37  76 N13       30.10R
JANESVILLE     CLOUDY    46  37  71 NE14      30.11R
$$

WIZ051-052-058>065-066-070>072-291700-
SOUTHEAST WISCONSIN

CITY           SKY/WX    TMP DP  RH WIND       PRES   REMARKS
MILWAUKEE      CLOUDY    41  36  82 NE9       30.14R
WAUKESHA       CLOUDY    39  36  87 NE7       30.14R WCI  34
MILWAUKEE/TIMM CLOUDY    39  36  87 NE7       30.12R WCI  34
RACINE         CLOUDY    44  38  79 NE12      30.15R
BURLINGTON     CLOUDY    41  37  84 NE9       30.12R
KENOSHA        CLOUDY    43  38  82 N10       30.13R
FOND DU LAC    MOSUNNY   49  37  63 NE12      30.12S
SHEBOYGAN      CLOUDY    47  34  60 NE16      30.11R
WEST BEND      CLOUDY    45  34  65 E9G18     30.12R
JUNEAU         CLOUDY    43  35  72 NE9       30.11S
$$

LSZ147-162-291700-
LAKE SUPERIOR

STATION/POSITION TIME  TEMP    WIND        PRES    WAVE
                       AIR SEA DIR/SP/G            HT/PER
                 (UTC) (F)     (DEG/KT/KT) (MB)    (FT/S)
W MID LAKE BUOY  1550   38 36   40/  6/  8 1023.8R   1
DEVILS ISLAND    1600   38      80/  5/  5 1024.0F
SAXON HARBOR     1500   38     320/  4/  5 1022.7R
$$

LMZ867-665-643>646-291700-
LAKE MICHIGAN

STATION/POSITION TIME  TEMP    WIND        PRES    WAVE
                       AIR SEA DIR/SP/G            HT/PER
                 (UTC) (F)     (DEG/KT/KT) (MB)    (FT/S)
CHAMBERS ISLAND  1500   41     360/ 10/ 11 1021.3
N MID LAKE BUOY  1550   39 39  360/ 10/ 14 1020.9F   1/ 3
NORTHPORT PIER   1500   40     320/  7/  8 1021.0F
ALGOMA LAKESHORE 1515           40/ 12/ 16   N/A
KEWAUNEE LAKESHO 1500   43      30/ 12/ 14 1019.2F
SHEBOYGAN LAKESH 1600   40      40/  9/ 10 1021.0R
PORT WASHINGTON  1500   42      40/  9/ 13 1020.7R
S MID LAKE BUOY  1550   40 40   40/ 10/ 10 1020.0R   1/ 3
KENOSHA   LAKESH 1600   40      30/ 11/ 14 1020.3R
$$

TC  - TEMPERATURE IN CELSIUS
VSB - VISIBILITY IN STATUTE MILES
WCI - WIND CHILL INDEX
HX  - HEAT INDEX





USA.gov is the U.S. government's official web portal to all federal, state and local government web resources and services.